Flag for Gambia Weather past 2 weeks in Serekunda, Gambia

Now
82 °F

Broken clouds.


Feels Like: 89 °F
Forecast: 77 / 79 °F
Wind: 16 mph from South

Location: Banjul / Yundum

Current Time: Aug 30, 2015 at 12:03:36 PM

Latest Report: Aug 30, 2015 at 11:00 AM


Visibility: N/A

Pressure: 29.89 "Hg

Humidity: 79%

Dew point: 75 °F

Location of SerekundaLocation

Historic Weather in Serekunda — Graph

°F

Serekunda temperature yesterday

Maximum temperature yesterday: 90 °F (at 4:00 PM)
Minimum temperature yesterday: 75 °F (at 6:00 PM)
Average temperature yesterday: 81 °F

Past Weeks' High & Low Weather Summary

 TemperatureHumidityPressure
High90 °F (Aug 24, 1:00 PM)100% (Aug 17, 7:00 AM)29.95 "Hg (Aug 17, 7:00 AM)
Low70 °F (Aug 25, 6:00 PM)62% (Aug 26, 5:00 PM)29.74 "Hg (Aug 29, 4:00 PM)
Average80 °F88%29.85 "Hg
* Reported Aug 15 11:00 AM — Aug 30 11:00 AM, Serekunda, Weather by CustomWeather, © 2015

Note: Actual official high and low records may vary slightly from our data, if they occured in-between our weather recording intervals... More about our weather records

Advertising

Serekunda weather history for previous 24 hours

 ConditionsComfort  
Time TempWeatherWind HumidityBarometerVisibility
11:00 AM
Sun, Aug 30
82 °FBroken clouds.16 mph79%29.89 "HgN/A
10:00 AM81 °FBroken clouds.13 mph79%29.86 "HgN/A
9:00 AM77 °FBroken clouds.17 mph89%29.86 "HgN/A
8:00 AM77 °FBroken clouds.13 mph94%29.83 "HgN/A
7:00 AM75 °FBroken clouds.14 mph94%29.83 "HgN/A
6:00 AM75 °FPartly cloudy.13 mph94%29.83 "HgN/A
5:00 AM75 °FPartly cloudy.13 mph94%29.83 "HgN/A
4:00 AM77 °FPartly cloudy.10 mph94%29.83 "HgN/A
3:00 AM77 °FWarm.No wind94%29.83 "HgN/A
2:00 AM77 °FPartly cloudy.12 mph94%29.83 "HgN/A
1:00 AM77 °FPartly cloudy.16 mph94%29.83 "HgN/A
12:00 AM77 °FPartly cloudy.12 mph94%29.86 "HgN/A
11:00 PM
Sat, Aug 29
79 °FLight rain. Partly cloudy.7 mph94%29.86 "Hg6 mi
10:00 PM77 °FPartly cloudy.No wind100%29.86 "HgN/A
9:00 PM77 °FThunderstorms. Partly cloudy.No wind100%29.80 "HgN/A
8:00 PM77 °FThunderstorms. Partly cloudy.No wind100%29.83 "Hg6 mi
7:00 PM77 °FThunderstorms. Partly sunny.No wind94%29.80 "Hg6 mi
6:00 PM75 °FThunderstorms. Partly sunny.6 mph94%29.80 "Hg6 mi
5:05 PM81 °FThunderstorms. Partly sunny.12 mph79%29.77 "HgN/A
5:00 PM88 °FBroken clouds.6 mph66%29.77 "HgN/A
4:00 PM90 °FBroken clouds.No wind71%29.74 "HgN/A
3:00 PM88 °FBroken clouds.8 mph75%29.80 "HgN/A
2:00 PM88 °FBroken clouds.12 mph70%29.80 "HgN/A
1:00 PM86 °FBroken clouds.No wind75%29.86 "HgN/A
12:00 PM86 °FPartly sunny.6 mph75%29.83 "HgN/A
Weather by CustomWeather, © 2015

See weather overviewHow to use our weather pages